Location: Bauerbach
(50.4985°N, 10.3912°E)
Time: 12:13:12
(UTC+00:00)

GRACE-FO 2 - Pass Details

Date: 13 January 2026
Orbit: 447 x 461 km, 89.0° (Epoch: 16 February)

Event Time Altitude Azimuth Distance (km) Brightness Sun altitude
Rises 06:31:02 0° 183° (S) 2,447 8.5 -6.8°
Reaches altitude 10° 06:33:05 10° 185° (S) 1,583 7.5 -6.6°
Maximum altitude 06:36:29 74° 270° (W) 479 4.4 -6.1°
Drops below altitude 10° 06:39:58 10° 356° (N) 1,606 6.9 -5.6°
Sets 06:42:03 0° 359° (N) 2,489 7.9 -5.3°
